"Pseudo-MPEC" for P11DKaE

Created 2023 Apr 2 17:22:09 UT using Find_Orb

Click here for an explanation of pseudo-MPECs

 
 Astrometry: 
     P11DKaE* C2023 03 21lnJAstrometry([6]3mZZ9#BWcn^?Uh_1ie1%`[aM0redacted;fF51
     P11DKaE  C2023 03 21/llYI'mb*5@G]$f8F%$5Diclick:*J0kQA1`hereg3-]for4myr]F51
     P11DKaE  C2023 03 21??@w_3x73bZ(l+8763Iw6^srHsj+lc%DH8v@)explanation/(kNF51

Station data:
(F51) Pan-STARRS 1, Haleakala  (N20.707234 W156.255910)  US/Hawaii.
   Observers J. Bulger, T. Lowe, A. Schultz, M. Willman. Measurers K.
   Chambers, S. Chastel, T. de Boer, L. Denneau, J. Fairlamb, H. Flewelling,
   M. Huber, C.-C. Lin, E. Magnier, Y. Ramanjooloo, R. Wainscoat, R. Weryk.
   1.8-m Ritchey-Chrétien + CCD.

Orbital elements:  P11DKaE
   Perihelion 2023 Mar 18.81945 +/- 31.9 TT = 19:40:00 (JD 2460022.31945)
Epoch 2023 Mar 22.0 TT = JDT 2460025.5   Earth MOID: 0.3057   Ju: 0.7906
M   0.58489210 +/- 14               Ma: 0.0205                   AutoNEOCP
n   0.18389665 +/- 0.228            Peri.  122.60149 +/- 90
a   3.06257567 +/- 2.53             Node    56.05506 +/- 57
e   0.6013139 +/- 0.263             Incl.   15.27189 +/- 8
P   5.36                   H 22.33  G  0.15   U 11.7  SR
q 1.22100609 +/- 0.144    Q 4.90414524 +/- 46.8           (J2000 ecliptic)
From 3 observations 2023 Mar. 21 (32.1 min); mean residual 0".03
Residuals in arcseconds: 
230321 F51  .03-  .02-    230321 F51  .05+  .05+    230321 F51  .03-  .02-    

Ephemerides (geocentric):
Date (UTC) HH   RA             Dec           delta  r     elong  mag " sig PA
---- --------  ------------   ------------  ------ ------ -----  --- --------
2023 04 02 17  14 24 59.898   +35 21 42.00  .31089 1.2341 133.5 21.8  59d  33
2023 04 02 18  14 24 59.491   +35 19 46.77  .31084 1.2342 133.5 21.8  59d  33
2023 04 02 19  14 24 59.078   +35 17 51.42  .31080 1.2343 133.5 21.8  59d  33
2023 04 02 20  14 24 58.661   +35 15 55.93  .31075 1.2343 133.6 21.8  59d  33
2023 04 02 21  14 24 58.239   +35 14 00.32  .31071 1.2344 133.6 21.8  59d  33
2023 04 02 22  14 24 57.811   +35 12 04.59  .31066 1.2345 133.6 21.8  59d  33
2023 04 02 23  14 24 57.378   +35 10 08.72  .31062 1.2346 133.6 21.8  59d  33
2023 04 03 00  14 24 56.941   +35 08 12.72  .31058 1.2346 133.7 21.8  59d  33
2023 04 03 01  14 24 56.498   +35 06 16.60  .31053 1.2347 133.7 21.8  59d  33
2023 04 03 02  14 24 56.050   +35 04 20.35  .31049 1.2348 133.7 21.8  59d  33
2023 04 03 03  14 24 55.597   +35 02 23.98  .31045 1.2349 133.8 21.8  60d  33
2023 04 03 04  14 24 55.139   +35 00 27.47  .31040 1.2349 133.8 21.8  60d  33
2023 04 03 05  14 24 54.676   +34 58 30.84  .31036 1.2350 133.8 21.8  60d  33
2023 04 03 06  14 24 54.208   +34 56 34.08  .31032 1.2351 133.9 21.8  60d  33
2023 04 03 07  14 24 53.735   +34 54 37.19  .31027 1.2352 133.9 21.8  60d  33
2023 04 03 08  14 24 53.257   +34 52 40.18  .31023 1.2352 133.9 21.8  60d  33
2023 04 03 09  14 24 52.774   +34 50 43.04  .31019 1.2353 134.0 21.8  60d  33
2023 04 03 10  14 24 52.286   +34 48 45.77  .31015 1.2354 134.0 21.8  60d  33
2023 04 03 11  14 24 51.793   +34 46 48.37  .31010 1.2355 134.0 21.8  60d  33
2023 04 03 12  14 24 51.295   +34 44 50.85  .31006 1.2355 134.1 21.8  60d  33
2023 04 03 13  14 24 50.792   +34 42 53.20  .31002 1.2356 134.1 21.8  60d  33
2023 04 03 14  14 24 50.285   +34 40 55.42  .30998 1.2357 134.1 21.8  60d  33
2023 04 03 15  14 24 49.772   +34 38 57.52  .30994 1.2358 134.1 21.8  60d  33
2023 04 03 16  14 24 49.254   +34 36 59.49  .30990 1.2359 134.2 21.8  60d  33
2023 04 03 17  14 24 48.732   +34 35 01.34  .30985 1.2359 134.2 21.8  60d  33
2023 04 03 18  14 24 48.205   +34 33 03.06  .30981 1.2360 134.2 21.8  60d  33
2023 04 03 19  14 24 47.672   +34 31 04.65  .30977 1.2361 134.3 21.8  60d  33
2023 04 03 20  14 24 47.135   +34 29 06.11  .30973 1.2362 134.3 21.8  60d  33
2023 04 03 21  14 24 46.593   +34 27 07.45  .30969 1.2362 134.3 21.8  60d  33
2023 04 03 22  14 24 46.047   +34 25 08.67  .30965 1.2363 134.4 21.7  61d  33
2023 04 03 23  14 24 45.495   +34 23 09.75  .30961 1.2364 134.4 21.7  61d  33
2023 04 04 00  14 24 44.939   +34 21 10.72  .30957 1.2365 134.4 21.7  61d  33
2023 04 04 01  14 24 44.377   +34 19 11.55  .30953 1.2366 134.5 21.7  61d  33
2023 04 04 02  14 24 43.811   +34 17 12.26  .30949 1.2366 134.5 21.7  61d  33
2023 04 04 03  14 24 43.241   +34 15 12.85  .30945 1.2367 134.5 21.7  61d  33
2023 04 04 04  14 24 42.665   +34 13 13.31  .30942 1.2368 134.6 21.7  61d  33
2023 04 04 05  14 24 42.085   +34 11 13.64  .30938 1.2369 134.6 21.7  61d  33
2023 04 04 06  14 24 41.500   +34 09 13.85  .30934 1.2370 134.6 21.7  61d  33
2023 04 04 07  14 24 40.910   +34 07 13.94  .30930 1.2370 134.7 21.7  61d  33
2023 04 04 08  14 24 40.315   +34 05 13.90  .30926 1.2371 134.7 21.7  61d  33
2023 04 04 09  14 24 39.716   +34 03 13.73  .30922 1.2372 134.7 21.7  62d  33
2023 04 04 10  14 24 39.112   +34 01 13.44  .30919 1.2373 134.8 21.7  62d  33
2023 04 04 11  14 24 38.504   +33 59 13.03  .30915 1.2374 134.8 21.7  62d  33
2023 04 04 12  14 24 37.890   +33 57 12.49  .30911 1.2374 134.8 21.7  62d  33
2023 04 04 13  14 24 37.272   +33 55 11.82  .30907 1.2375 134.9 21.7  62d  33
2023 04 04 14  14 24 36.650   +33 53 11.03  .30904 1.2376 134.9 21.7  62d  33
2023 04 04 15  14 24 36.023   +33 51 10.12  .30900 1.2377 134.9 21.7  62d  33
2023 04 04 16  14 24 35.391   +33 49 09.08  .30896 1.2378 134.9 21.7  62d  33